COSMOS 252 DEB, 3814

Orbit data source: Space-Track

COSMOS 252 DEB, 3814 is space debris in LEO originally from a launch on Fri, 01 Nov 1968 UTC launched from the Tyuratam Missile And Space Complex (TTMTR). Debris objects in space refer to the collection of defunct objects orbiting the Earth. Examples of debris include non-operational satellites, rocket bodies, and fragments generated from explosions, collisions, or faulty payload assembly.

Loading next visibility...
Identifier
3814, 1968-097BC
Orbit
LEO
Country
Flag of CISCIS
Related business
Manufacturer
Unknown
Mission
Spacecraft
Bus & Motor
Unknown
Mass
Unknown
Launch date (UTC)
1968-11-01 (57 years ago)
Launch vehicle
Unknown
Launch site
Tyuratam Missile And Space Complex (TTMTR)
Object type
Payload
Rocket body
Debris
Shape & HBR
Unknown shape, 0.1 m
Radar Cross Section
Small (<0.1 m²)

Expand to show TLE details & history
Last TLE update: 2 days ago

TLE from 2 days ago
0 COSMOS 252 DEB
1 03814U 68097BC  26120.02424926  .00001560  00000-0  20444-2 0  9994
2 03814  62.2681  72.8008 0770931  18.4567 344.2805 12.79399956648291
Epoch: 2026-04-30T00:34Z
TLE epoch observation values (Epoch: 2026-04-30T00:34:55.136Z)
Latitude
-0.00005°
Longitude
-153.90576°
Altitude
776.189 km
Speed
7.737 km/s
True Right ascension
04h 51m 12s
True Declination
0° 00' 00"
Sunlit
Object was in daylight at epoch
Visualization orbit readout
Latitude
Unknown
Longitude
Unknown
Altitude
Unknown
Speed
Unknown
Apparent Right ascension
Unknown
Apparent Declination
Unknown
Sunlit
N/A
Visualization observer readout
Local Sidereal Time
18:20:06
Azimuth
Unknown
Elevation
Unknown
Doppler factor
Unknown
Orbital elements
Apogee altitude
1,938.117 km
Perigee altitude
747.643 km
Semi-major axis
7,721.017 km
Eccentricity
0.07709
Inclination
62.2681°
RAAN
72.8008°
Arg. of periapsis
18.4567°
True anomaly
341.64441°
Mean anomaly
344.2805°
Eccentric anomaly
342.98819°
Mean motion
3.19913 °/min
Orbital period
112.53 mins
BSTAR
0.0020444
Loading maneuver chart data...
Computing Atmospheric mass density...
Loading historical data...
Loading historical data...
Loading historical data...
Loading historical data...
Loading historical data...
Loading historical data...
Loading historical data...

Documentation

Showing up to 5 results
|